STARLINK-5442, 54784

Orbit data source: Space-Track

STARLINK-5442, 54784 is a payload satellite owned by SpaceX/Seattle (US) in LEO that was launched on Sat, 17 Dec 2022 UTC via an FALCON 9 launch vehicle from the Air Force Eastern Test Range (AFETR). Payload-class satellites include a variety of spacecraft equipped with specific instruments for various scientific and technological missions. These include communications satellites like Starlink; space stations such as the ISS; scientific satellites like the Hubble; Earth observation satellites from companies like Planet Labs, Umbra, and HawkEye 360; GPS; miniature CubeSats for education and research; and military/defense satellites.

Loading next visibility...
Identifier
54784, 2022-175AC
Orbit
LEO
Country
Flag of USUS
Related business
Manufacturer
SpaceX/Seattle
Mission
Operational Commercial Communications
Bus & Motor
STARLINK, Unknown motor
Mass
305 kg wet, ~290 kg dry
Launch date (UTC)
2022-12-17 (4 years ago)
Launch vehicle
FALCON 9
Launch site
Air Force Eastern Test Range (AFETR)
Object type
Payload
Rocket body
Debris
Shape & HBR
Box + 1 Pan, 10.1 m
Radar Cross Section
13.562 m², Large (>1 m²)

Expand to show TLE details & history
Last TLE update: 3 days ago

TLE from 3 days ago
0 STARLINK-5442
1 54784U 22175AC  26170.64110696  .00000093  00000-0  23939-4 0  9996
2 54784  53.1591 306.0901 0000714  88.4712 271.6361 15.08835850195313
Epoch: 2026-06-19T15:23Z
TLE epoch observation values (Epoch: 2026-06-19T15:23:11.641Z)
Latitude
-0.00003°
Longitude
167.4244°
Altitude
540.633 km
Speed
7.593 km/s
True Right ascension
20h 24m 21s
True Declination
0° 00' 00"
Sunlit
Object was in full shadow at epoch
Visualization orbit readout
Latitude
Unknown
Longitude
Unknown
Altitude
Unknown
Speed
Unknown
Apparent Right ascension
Unknown
Apparent Declination
Unknown
Sunlit
N/A
Visualization observer readout
Local Sidereal Time
21:53:57
Azimuth
Unknown
Elevation
Unknown
Doppler factor
Unknown
Orbital elements
Apogee altitude
540.504 km
Perigee altitude
539.516 km
Semi-major axis
6,918.147 km
Eccentricity
0.00007
Inclination
53.1591°
RAAN
306.0901°
Arg. of periapsis
88.4712°
True anomaly
271.62792°
Mean anomaly
271.6361°
Eccentric anomaly
271.63201°
Mean motion
3.77189 °/min
Orbital period
95.44 mins
BSTAR
0.000023939
Loading maneuver chart data...
Computing Atmospheric mass density...
Loading historical data...
Loading historical data...
Loading historical data...
Loading historical data...
Loading historical data...
Loading historical data...
Loading historical data...

Documentation

Showing up to 5 results
|